Agena D 2303

Debris
NORAD ID: 733 Int'l Des: 1964-002 Owner: AFSSD Country: US
LEOCIRCULARRETROGRADE

Über Agena D 2303

Beschreibung wird geladen...

Live-Position

3D-Globus wird geladen...

Nächste Überflüge

Höhenverlauf

Altitude vs Time

uPlot chart will show altitude changes over time

Zweizeiliger Elementsatz

1 733U 64002A 26071.03400274 .00000262 00000-0 11070-3 0 9993
2 733 99.1225 84.4992 0031996 251.0942 108.6771 14.34021689238630
Epoch: 12. März 2026 • Age: 19 hours

Aktueller Status

Höhe 778.1 km
Geschwindigkeit 7.48 km/s
Subsatellitenpunkt -57.66°S, 160.16°E
Typ debris

Große Konstellationen

Loading constellations...